This is the latest recevied weather packets stored in our database for station/object K5KHP. If no packets are shown the sender has not sent any weather packets the latest 10 day(s).
| Time | Temp. | Humidity | Pressure | Rain* | Wind** | Luminosity | Snow |
|---|---|---|---|---|---|---|---|
| 1777605736 | 15° C | 89% | 1010.7 hPa | 0 mm | - | 0 W/m² | - |
| 1777605435 | 15° C | 89% | 1010.6 hPa | 0 mm | - | 0 W/m² | - |
| 1777605133 | 15.56° C | 89% | 1010.7 hPa | 0 mm | - | 0 W/m² | - |
| 1777604828 | 15.56° C | 89% | 1010.6 hPa | 0 mm | - | 0 W/m² | - |
| 1777604525 | 15.56° C | 88% | 1010.5 hPa | 0 mm | - | 0 W/m² | - |
| 1777604220 | 15.56° C | 88% | 1010.4 hPa | 0 mm | - | 0 W/m² | - |
| 1777603916 | 15.56° C | 87% | 1010.2 hPa | 0 mm | - | 0 W/m² | - |
| 1777603614 | 16.11° C | 86% | 1010.3 hPa | 0 mm | - | 0 W/m² | - |
| 1777603309 | 16.11° C | 85% | 1010.1 hPa | 0 mm | - | 0 W/m² | - |
| 1777603005 | 16.11° C | 84% | 1010.1 hPa | 0 mm | - | 3 W/m² | - |
| 1777602700 | 16.11° C | 84% | 1010.2 hPa | 0 mm | - | 5 W/m² | - |
| 1777602395 | 16.11° C | 84% | 1010.1 hPa | 0 mm | - | 8 W/m² | - |
| 1777602092 | 16.67° C | 83% | 1010 hPa | 0 mm | - | 11 W/m² | - |
| 1777601787 | 17.22° C | 83% | 1010.2 hPa | 0 mm | - | 15 W/m² | - |
| 1777601482 | 17.22° C | 82% | 1010 hPa | 0 mm | - | 18 W/m² | - |
| 1777601178 | 17.22° C | 82% | 1010 hPa | 0 mm | - | 22 W/m² | - |
| 1777600876 | 17.78° C | 81% | 1009.8 hPa | 0 mm | - | 24 W/m² | - |
| 1777600571 | 18.33° C | 79% | 1009.8 hPa | 0 mm | - | 28 W/m² | - |
| 1777600267 | 17.78° C | 79% | 1009.9 hPa | 0 mm | - | 31 W/m² | - |
| 1777599963 | 17.78° C | 79% | 1009.9 hPa | 0 mm | - | 33 W/m² | - |
| 1777599660 | 18.33° C | 79% | 1009.7 hPa | 0 mm | - | 39 W/m² | - |
| 1777599356 | 18.33° C | 78% | 1009.9 hPa | 0 mm | - | 63 W/m² | - |
| 1777599053 | 18.33° C | 77% | 1009.8 hPa | 0 mm | - | 72 W/m² | - |
| 1777598751 | 18.89° C | 77% | 1009.6 hPa | 0 mm | - | 83 W/m² | - |
| 1777598451 | 18.89° C | 76% | 1009.7 hPa | 0 mm | - | 94 W/m² | - |
* Rain latest hour (hover to see other rain measurements)
** Current wind speed in m/s (hover to see current wind gust speed)